Regional Weather Roundup
Issued by NWS

Home | Current Version | Previous Version | Graphics & Text | Print | Product List | Glossary On
Versions: 1 2 3 4 5 6 7 8 9 10 11 12 13 14 15 16 17 18 19 20 21 22 23 24 25 26 27 28 29 30 31 32 33 34 35 36 37 38 39 40 41 42 43 44 45 46 47 48 49 50
760
ASUS43 KMPX 230101
RWRMN
WEATHER ROUNDUP FOR MINNESOTA
NATIONAL WEATHER SERVICE TWIN CITIES/CHANHASSEN MN
800 PM CDT WED MAR 22 2017


NOTE: "FAIR" INDICATES FEW OR NO CLOUDS BELOW 12,000 FEET WITH NO
SIGNIFICANT WEATHER AND/OR OBSTRUCTIONS TO VISIBILITY. N/A MEANS
CURRENT SKY AND/OR WEATHER CONDITIONS ARE NOT AVAILABLE.

MNZ060>063-068>070-230200-
   Twin Cities Metro

CITY           SKY/WX    TMP DP  RH WIND       PRES   REMARKS
TWIN CITIES    CLOUDY    38  13  35 SE13      30.33F
ST PAUL        CLOUDY    38  14  37 SE12      30.35F
CRYSTAL        CLOUDY    37  12  35 SE18      30.32F
BLAINE         CLOUDY    39  12  33 SE13      30.33F
LAKEVILLE      CLOUDY    36  18  48 SE7       30.32F
EDEN PRAIRIE   CLOUDY    38  14  37 SE14      30.31F
SOUTH ST PAUL  CLOUDY    38  13  36 SE8       30.33F
LAKE ELMO      CLOUDY    36  14  41 SE7       30.35F
$$
MNZ001>005-007-008-013>017-022>024-027-028-230200-
   Northwest Minnesota

CITY           SKY/WX    TMP DP  RH WIND       PRES   REMARKS
BEMIDJI        CLOUDY    31  16  54 SE15      30.19F WCI  20
HALLOCK        CLOUDY    30  25  80 SE16      30.11F WCI  19
ROSEAU         LGT SNOW  30  21  69 SE16G25   30.17F WCI  19
WARROAD        CLOUDY    34  14  44 SE14      30.19F WCI  24
THIEF RVR FALL   N/A    N/A N/A N/A MISG        N/A
CROOKSTON      CLOUDY    30  21  69 S16       30.14F WCI  19
FOSSTON        CLOUDY    30  16  55 SE12      30.16F WCI  21
DETROIT LAKES  CLOUDY    32  21  64 SE22G30   30.16F WCI  19
MOORHEAD       CLOUDY    34  21  60 SE22G29   30.14F WCI  22
PARK RAPIDS    CLOUDY    33  10  38 SE17      30.20F WCI  22
MAHNOMEN       CLOUDY    32  16  51 SE12      30.14F WCI  23
$$
MNZ006-009>011-018-025>026-230200-
   North Central Minnesota

CITY           SKY/WX    TMP DP  RH WIND       PRES   REMARKS
BAUDETTE       CLOUDY    33   9  36 S10       30.20F WCI  25
FLAG ISLAND    CLOUDY    28  19  69 S10       30.19F WCI  19
INTL FALLS     CLOUDY    33   9  36 SE7       30.25S WCI  27
WASKISH        CLOUDY    34  10  37 SE8       30.21F WCI  27
BIG FORK       CLOUDY    34   9  35 SE8       30.24F WCI  27
LONGVILLE      CLOUDY    34   9  35 SE9       30.24F WCI  26
GRAND RAPIDS   CLOUDY    33   8  35 SE10      30.27F WCI  25
CRANE LAKE     CLOUDY    30   7  37 CALM      30.29F
ORR            CLOUDY    32   5  32 CALM      30.24F
COOK           CLOUDY    32   9  37 SE6       30.28S WCI  26
WALKER         CLOUDY    31  12  45 S16G23    30.22F WCI  20
$$
MNZ012-019>021-037-230200-
   Northeast Minnesota

CITY           SKY/WX    TMP DP  RH WIND       PRES   REMARKS
DULUTH         CLOUDY    26  19  74 E12       30.32F WCI  16
ELY            CLOUDY    30   7  37 S6        30.30F WCI  24
HIBBING        CLOUDY    32   8  36 SE6       30.27F WCI  26
EVELETH        CLOUDY    32   2  28 SE6       30.30S WCI  27
DULUTH HARBOR  PTCLDY    30  25  80 E15       30.38F WCI  19
TWO HARBORS    CLOUDY    28  19  69 NE8       30.35S WCI  20
SILVER BAY     CLEAR     25  19  80 NE3       30.36F
GRAND MARAIS     N/A     24  14  65 N5        30.43F WCI  18
G MARAIS ARPRT PTCLDY    18   7  62 SE3       30.35S
$$
MNZ029>031-032-039>041-046>048-054>057-064-230200-
   West Central Minnesota

CITY           SKY/WX    TMP DP  RH WIND       PRES   REMARKS
FERGUS FALLS   CLOUDY    34  21  60 SE18G26   30.20F WCI  23
WHEATON        CLOUDY    34  25  69 SE24G32   30.15F WCI  21
MORRIS         CLOUDY    34  25  69 SE23G31   30.17F WCI  22
ALEXANDRIA     CLOUDY    32  21  64 SE18      30.21F WCI  20
ELBOW LAKE     CLOUDY    32  23  69 E23G32    30.17F WCI  19
WADENA         MIX PCPN  30  21  69 SE15G23   30.21F WCI  19
GLENWOOD       CLOUDY    34  23  64 SE15G23   30.22F WCI  24
APPLETON       CLOUDY    36  25  64 SE17G23   30.18F
BENSON         CLOUDY    36  21  55 S16G23    30.22F
ORTONVILLE     CLOUDY    34  25  69 SE24G30   30.14F WCI  21
MADISON        CLOUDY    37  28  70 SE20G28   30.17F
WILLMAR        CLOUDY    36  25  64 SE20G25   30.24F
$$
MNZ033>034-036-042>043-049>051-058-059-230200-
   Central Minnesota

CITY           SKY/WX    TMP DP  RH WIND       PRES   REMARKS
ST CLOUD       CLOUDY    35  17  47 SE15      30.28F WCI  25
SAUK CENTRE    CLOUDY    32  21  63 SE15      30.24F WCI  22
PAYNESVILLE      N/A     34  22  60 SE12G18   30.26F WCI  25
AITKIN         CLOUDY    36   5  27 SE9       30.27F
PINE RIVER     CLOUDY    34  12  40 S13       30.26F WCI  25
BRAINERD       CLOUDY    34   9  35 SE12      30.26F WCI  25
STAPLES        CLOUDY    30  16  55 SE10G17   30.23F WCI  21
LONG PRAIRIE   CLOUDY    32  19  59 E16       30.25F WCI  21
LITTLE FALLS   CLOUDY    34  14  44 SE10      30.26F WCI  26
LITCHFIELD     CLOUDY    36  23  60 SE7       30.28S
BUFFALO        CLOUDY    36  16  44 SE9       30.31F
MAPLE LAKE     CLOUDY    36  21  54 SE9       30.30F
HUTCHINSON     CLOUDY    36  25  65 SE12      30.29F
$$
MNZ037-044-045-052-053-230200-
   East Central Minnesota

CITY           SKY/WX    TMP DP  RH WIND       PRES   REMARKS
PRINCETON      CLOUDY    37  12  35 SE6       30.31F
MORA           CLOUDY    34  10  37 S6        30.34F WCI  29
CAMBRIDGE      CLOUDY    37  18  44 SE6       30.31F
RUSH CITY      CLOUDY    35  10  35 SE8       30.33F WCI  28
MOOSE LAKE     PTCLDY    36  12  38 CALM      30.31S
HINCKLEY       FAIR      34  12  40 SE6       30.33F WCI  29
CLOQUET        CLOUDY    28  18  64 E8        30.32S WCI  20
MCGREGOR       CLOUDY    34  10  37 S12       30.29F WCI  25
$$
MNZ071>073-080-081-089-090-097-098-230200-
   Southwest Minnesota

CITY           SKY/WX    TMP DP  RH WIND       PRES   REMARKS
MONTEVIDEO     CLOUDY    34  27  75 S18G28    30.22S WCI  23
GRANITE FALLS  CLOUDY    37  28  70 E16G24    30.23S
CANBY          CLOUDY    35  28  74 E20       30.17F WCI  24
MARSHALL       CLOUDY    35  25  66 SE17G24   30.19F WCI  25
REDWOOD FALLS  CLOUDY    35  24  64 SE16G24   30.23F WCI  25
OLIVIA         CLOUDY    34  27  75 SE12G20   30.23F WCI  25
PIPESTONE      CLOUDY    36  23  60 SE18G25   30.13F
WINDOM         CLOUDY    36  25  64 SE17G23   30.20F
WORTHINGTON    CLOUDY    35  24  64 SE18G26   30.19F WCI  24
JACKSON        CLOUDY    34  27  75 SE16      30.21F WCI  23
TRACY          CLOUDY    35  28  73 SE17G24   30.19F WCI  25
SLAYTON        CLOUDY    33  27  81 SE20G25   30.17F WCI  21
$$
MNZ065>067-074>077-082>085-091>093-230200-
   South Central Minnesota

CITY           SKY/WX    TMP DP  RH WIND       PRES   REMARKS
MANKATO        CLOUDY    36  22  56 SE14      30.30F
NEW ULM        CLOUDY    36  21  55 SE14G22   30.26F
ST JAMES       CLOUDY    36  27  69 SE14      30.26F
FAIRMONT       CLOUDY    36  24  62 SE16G24   30.25F
GLENCOE        CLOUDY    37  25  63 SE10      30.29F
FARIBAULT      CLOUDY    37  21  52 SE9       30.32F
OWATONNA       CLOUDY    37  18  44 SE12G20   30.31F
WASECA         CLOUDY    36  27  69 SE7       30.32F
ALBERT LEA     CLOUDY    37  19  48 SE12G17   30.31F
$$
MNZ078>079-086>088-094>096-230200-
   Southeast Minnesota

CITY           SKY/WX    TMP DP  RH WIND       PRES   REMARKS
ROCHESTER      CLOUDY    35  19  52 SE13      30.34F WCI  26
RED WING       CLOUDY    37   9  30 S9        30.35F
STANTON        CLOUDY    37  15  39 SE8       30.32F
DODGE CENTER   CLOUDY    36  21  55 SE12      30.32F
WINONA         CLOUDY    36   9  32 S7        30.39F
AUSTIN         CLOUDY    37  19  48 SE8       30.32F
PRESTON        CLOUDY    35  13  40 SE13      30.35F WCI  27
$$
ABBREVIATIONS USED IN REMARKS
   TC - TEMPERATURES IN CELSIUS
  WCI - WIND CHILL INDEX
   HX - HEAT INDEX
  VSB - VISIBILITY
$$




USA.gov is the U.S. government's official web portal to all federal, state and local government web resources and services.